Location: Unspecified
(0.0000°N, 0.0000°E)
Time: 09:03:26
(UTC+00:00)

deb NOAA 5 - Pass Details

Date: 18 February 2026
Orbit: 747 x 1048 km, 102.9° (Epoch: 14 March)

Event Time Altitude Azimuth Distance (km) Brightness Sun altitude
Rises 19:28:54 0° 339° (NNW) 3,652 ? -18.4°
Reaches altitude 10° 19:33:24 10° 308° (NW) 2,632 ? -19.5°
Maximum altitude 19:35:12 11° 290° (WNW) 2,496 ? -19.9°
Drops below altitude 10° 19:36:57 10° 272° (W) 2,569 ? -20.3°
Sets 19:41:13 0° 239° (WSW) 3,430 ? -21.4°
